Location: Gad�tanya
(48.0500°N, 20.8500°E)
Time: 11:30:01
(UTC+00:00)

Cosmos 1452 Rocket - Pass Details

Date: 05 July 2020
Orbit: 768 x 774 km, 74.1° (Epoch: 14 August)

Event Time Altitude Azimuth Distance (km) Brightness Sun altitude
Rises 21:44:11 0° 341° (NNW) 3,257 8.5 -18.1°
Reaches altitude 10° 21:46:42 10° 348° (NNW) 2,325 7.3 -18.2°
Maximum altitude 21:51:43 43° 60° (ENE) 1,083 4.4 -18.4°
Enters shadow 21:54:50 21° 120° (ESE) 1,673 4.9 -18.5°
